Starlink 32862

operational
NORAD ID: 62864 Int'l Des: 2025-022 Owner: SPXS Country: US Constellation: starlink
LEOCIRCULAR

About Starlink 32862

Description loading...

Live Position

Loading 3D Globe...

Upcoming Passes

Altitude History

Altitude vs Time

uPlot chart will show altitude changes over time

Two-Line Element Set

1 62864U 25022L 25305.39011974 .00041874 00000-0 14183-2 0 9999
2 62864 53.1589 5.7841 0001231 94.3173 265.7969 15.30193247 42250
Epoch: Nov 1, 2025 • Age: 12 hours

Current Status

Altitude 492.1 km
Velocity 7.62 km/s
Sub-Earth Point -47.57°S, 124.51°W
Launch Date Feb 2, 2025
Age 0.7 years
Type internet

Technical Details

Classification Payload
Mass 730.00 kg
Dry Mass 700.00 kg
Total Mass 730.00 kg
Length 0.30 m
Diameter 4.10 m
Span 29.00 m
Shape Box + pan
Manufacturer SPXS
Bus Type Starlink V2M
Phase Status In Orbit
Owner/State SPXS/US

Large Constellations

Loading constellations...